Regional Weather Roundup
Issued by NWS Glasgow, MT

Home | Current Version | Previous Version | Text Only | Print | Product List | Glossary On
Versions: 1 2 3 4 5 6 7 8 9 10 11 12 13 14 15 16 17 18 19 20 21 22 23 24 25 26 27 28 29 30 31 32 33 34 35 36 37 38 39 40 41 42 43 44 45 46 47 48 49 50
000
ASUS45 KGGW 232215
RWRGGW
HOURLY REGIONAL WEATHER ROUNDUP FOR NORTHEAST MONTANA
NATIONAL WEATHER SERVICE GLASGOW MONTANA
400 PM MDT WED MAY 23 2018

NOTE: "FAIR" INDICATES FEW OR NO CLOUDS BELOW 12,000 FEET WITH NO
SIGNIFICANT WEATHER AND/OR OBSTRUCTIONS TO VISISBILITY.

NORTHEAST MONTANA


CITY           SKY/WX    TMP DP  RH WIND       PRES   REMARKS
GLASGOW        CLOUDY    68  59  73 NE12      29.83F
WOLF POINT     CLOUDY    70  59  68 NE14      29.83F
JORDAN           N/A     68  59  73 NE13      29.82F
SIDNEY         PTSUNNY   75  61  61 SE10      29.82F
GLENDIVE       MOSUNNY   74  61  63 E7        29.81F

FORT PECK REPORTS


CITY           SKY/WX    TMP DP  RH WIND       PRES   REMARKS

SOUTHEAST MONTANA


CITY           SKY/WX    TMP DP  RH WIND       PRES   REMARKS
BILLINGS       TSTM      58  56  93 NE10      29.83S
MILES CITY     MOSUNNY   74  57  55 E3        29.78F
BAKER          SUNNY     78  57  48 SE13      29.82F
LIVINGSTON     CLOUDY    57  47  69 SW24      29.89S

CENTRAL MONTANA


CITY           SKY/WX    TMP DP  RH WIND       PRES   REMARKS
HAVRE          CLOUDY    75  51  43 SE13      29.82S
LEWISTOWN      CLOUDY    58  53  84 N5        29.90S
GREAT FALLS    PTSUNNY   68  50  52 SE7       29.87F
CUT BANK       CLOUDY    66  48  52 E22       29.87S
HELENA         CLOUDY    66  51  58 NE6       29.88S
BUTTE          LGT RAIN  55  50  83 S15       29.93F
BOZEMAN        CLOUDY    57  51  80 W7        29.91S

WESTERN MONTANA


CITY           SKY/WX    TMP DP  RH WIND       PRES   REMARKS
MISSOULA       PTSUNNY   72  47  40 E22       29.80R
KALISPELL      NOT AVBL

NORTH DAKOTA


CITY           SKY/WX    TMP DP  RH WIND       PRES   REMARKS
WILLISTON      CLOUDY    70  61  73 E7        29.85F
DICKINSON      PTSUNNY   76  60  57 SE12      29.83F
MINOT          CLOUDY    82  58  43 SE15G28   29.85F
BISMARCK       CLOUDY    79  65  62 SE14      29.85F

SOUTHERN SASKATCHEWAN


CITY           SKY/WX    TMP DP  RH WIND       PRES   REMARKS
REGINA         TSTM      68  57  68 SE30G41   29.86R
MOOSE JAW      CLOUDY    79  54  41 S20G28    29.84S
ESTEVAN        CLOUDY    72  57  60 SE7       29.88F
SWIFT CURRENT  CLOUDY    75  48  38 NE12G21   29.82F




USA.gov is the U.S. government's official web portal to all federal, state and local government web resources and services.